[[{"header":{"parameterUnit":"m.s-1","parameterCategory":1,"la1":30.2991,"la2":30.254,"lo1":-89.0895,"lo2":-89.0444,"dy":0.0017,"dx":0.0017,"nx":28,"ny":28,"refTime":"2024-12-25T03:00:00:Z","depth":0,"parameterNumber":2,"parameterNumberName":"U-component_of_WINDS"},"data":[0,0,0,0,0,0,0,0,0,0,0,0,0,0,0,0,0,0,0,0,0,0,0,0,0,0,0,0,0,0,0,0,0,0,0,0,0,0,0,0,0,0,0,0,0,0,0,0,0,0,0,0,0,0,0,0,0,0,-4.2842,-4.2842,0,-4.2892,-4.2892,-4.2893,-4.2746,-4.2742,-4.2737,-4.2733,-4.279,-4.2796,-4.2801,0,0,0,0,0,0,0,0,0,0,0,0,0,-4.2624,-4.2628,-4.2841,-4.2842,-4.2843,-4.2892,-4.2892,-4.2893,-4.2747,-4.2742,-4.2736,-4.2731,-4.2788,-4.2795,-4.2802,0,0,0,0,0,0,0,0,0,0,0,0,0,-4.2701,-4.263,-4.2841,-4.2776,-4.277,-4.2892,-4.2892,-4.2893,-4.2748,-4.2741,-4.2735,-4.2728,-4.2786,-4.2794,-4.2803,-4.2992,0,0,-4.2829,-4.2833,0,0,0,0,0,0,0,0,-4.2697,-4.2709,-4.2785,-4.278,-4.2775,-4.2806,-4.2836,-4.2927,-4.275,-4.2757,-4.2733,-4.2725,-4.2801,-4.2808,-4.2833,-4.2995,-4.2997,-4.283,-4.2835,-4.2839,-4.2841,0,0,0,0,0,0,0,-4.2691,-4.2706,-4.2861,-4.2786,-4.278,-4.2745,-4.2749,-4.2853,-4.2817,-4.2756,-4.2745,-4.2753,-4.2797,-4.2825,-4.2833,-4.2998,-4.283,-4.2837,-4.2843,-4.2846,-4.3317,-4.3324,0,0,0,0,0,0,-4.2694,-4.2702,-4.286,-4.2863,-4.2718,-4.2755,-4.2758,-4.2803,-4.2815,-4.281,-4.2759,-4.2746,-4.2813,-4.2823,-4.2834,-4.3057,-4.2839,-4.2847,-4.2852,-4.331,-4.3319,-4.3327,0,0,0,0,0,0,-4.269,-4.2709,-4.2858,-4.278,-4.2796,-4.2765,-4.2816,-4.2807,-4.2834,-4.2817,-4.281,-4.2793,-4.2808,-4.2822,-4.2953,-4.3057,-4.2851,-4.2859,-4.3301,-4.3313,-4.3323,-4.3503,0,0,0,0,0,0,-4.2684,-4.2709,-4.2779,-4.2782,-4.2801,-4.2975,-4.2823,-4.2813,-4.2849,-4.2833,-4.2848,-4.2844,-4.2804,-4.2941,-4.2962,-4.3065,-4.2865,-4.3292,-4.3306,-4.3319,-4.3488,-4.3519,-4.3545,0,0,0,0,0,-4.2677,-4.2829,-4.2784,-4.2803,-4.2888,-4.2981,-4.2992,-4.2942,-4.2858,-4.2929,-4.2918,-4.2843,-4.3042,-4.2956,-4.2978,-4.3085,-4.3285,-4.3302,-4.3318,-4.3475,-4.3513,-4.3545,0,0,0,0,0,0,-4.2841,-4.2828,-4.2778,-4.2935,-4.296,-4.2956,-4.3045,-4.2984,-4.3034,-4.3017,-4.2954,-4.2959,-4.3102,-4.3106,-4.3011,-4.3268,-4.3149,-4.3171,-4.3261,-4.3297,-4.3325,-4.3322,-4.2872,0,0,0,0,0,-4.2895,-4.2971,-4.2956,-4.3097,-4.3111,-4.3077,-4.3115,-4.3074,-4.3098,-4.3109,-4.3107,-4.3135,-4.3203,-4.325,-4.3312,-4.3487,-4.3489,-4.3571,-4.36,-4.3624,-4.3644,-4.3738,-4.3774,-4.3381,-4.3381,-4.3381,0,0,-4.3009,-4.3011,-4.3063,-4.313,-4.3144,-4.3225,-4.3087,-4.3178,-4.3238,-4.3123,-4.3246,-4.3246,-4.3273,-4.3427,-4.3495,-4.3435,-4.3753,-4.3645,-4.3664,-4.3671,-4.3758,-4.3796,-4.3829,-4.3392,-4.339,-4.3388,0,0,-4.3258,-4.3266,-4.3384,-4.3401,-4.3424,-4.3399,-4.3428,-4.3433,-4.3428,-4.355,-4.3466,-4.3537,-4.3656,-4.3678,-4.3706,-4.3962,-4.3895,-4.3984,-4.4135,-4.4227,-4.4258,-4.4285,-4.4378,-4.4412,-4.4003,-4.4004,-4.4004,0,-4.3397,-4.3513,-4.3453,-4.355,-4.3583,-4.348,-4.36,-4.362,-4.3663,-4.3688,-4.362,-4.3766,-4.3777,-4.3936,-4.3998,-4.4023,-4.4055,-4.3983,-4.4258,-4.4285,-4.4309,-4.4397,-4.4432,-4.4014,-4.4013,-4.4012,-4.4011,0,-4.3684,-4.3766,-4.3859,-4.3901,-4.3943,-4.4052,-4.4009,-4.406,-4.4015,-4.3998,-4.4124,-4.4133,-4.4195,-4.4229,-4.4187,-4.4382,-4.4344,-4.4268,-4.4147,-4.4359,-4.444,-4.4473,-4.403,-4.4026,-4.4023,-4.402,0,0,-4.4039,-4.4045,-4.408,-4.4098,-4.4115,-4.4179,-4.4282,-4.4341,-4.4386,-4.4419,-4.4506,-4.4608,-4.4537,-4.4568,-4.4527,-4.4608,-4.4811,-4.4521,-4.4521,-4.4576,-4.5028,-4.5086,-4.5126,-4.4766,-4.4772,-4.4777,-4.5026,0,-4.4285,-4.4461,-4.4409,-4.4587,-4.4663,-4.4566,-4.4656,-4.4677,-4.4664,-4.4728,-4.4713,-4.4788,-4.4688,-4.4706,-4.4781,-4.4771,-4.4901,-4.4752,-4.4848,-4.4852,-4.4846,-4.5168,-4.523,-4.5465,-4.5057,-4.5063,-4.5066,0,-4.4595,-4.4638,-4.4823,-4.4827,-4.4857,-4.4939,-4.4988,-4.505,-4.5072,-4.5057,-4.5091,-4.5033,-4.5137,-4.5014,-4.5157,-4.5056,-4.5092,-4.5093,-4.5101,-4.511,-4.4974,-4.5187,-4.5538,-4.5574,-4.5116,-4.5112,-4.5108,0,-4.4838,-4.4942,-4.5065,-4.5084,-4.5091,-4.5151,-4.5157,-4.5172,-4.5211,-4.5255,-4.5279,-4.5335,-4.5367,-4.5412,-4.5371,-4.5286,-4.5521,-4.5395,-4.5513,-4.5515,-4.5569,-4.5566,-4.5932,-4.559,-4.5589,-4.5589,-4.5588,0,-4.5118,-4.5236,-4.5174,-4.5251,-4.538,-4.5319,-4.5449,-4.5444,-4.5459,-4.5534,-4.5453,-4.5526,-4.5467,-4.5535,-4.5504,-4.5627,-4.5642,-4.5634,-4.5624,-4.5642,-4.5643,-4.5666,-4.565,-4.5598,-4.5596,-4.5594,-4.5592,0,-4.5412,-4.5375,-4.5504,-4.5499,-4.5501,-4.5597,-4.5593,-4.5665,-4.5644,-4.5741,-4.576,-4.573,-4.5805,-4.5768,-4.5848,-4.5827,-4.5987,-4.5955,-4.5979,-4.5971,-4.6092,-4.6082,-4.6487,-4.6538,-4.6162,-4.6165,-4.6168,0,-4.5594,-4.5682,-4.5686,-4.5729,-4.5741,-4.5812,-4.585,-4.5794,-4.5837,-4.5869,-4.5937,-4.6005,-4.6056,-4.6182,-4.6168,-4.6229,-4.6199,-4.6336,-4.6208,-4.6222,-4.6203,-4.6199,-4.6208,-4.6363,-4.6368,-4.6371,-4.6374,0,-4.5922,-4.5899,-4.5956,-4.6008,-4.6055,-4.6093,-4.6125,-4.6165,-4.611,-4.6163,-4.6238,-4.6278,-4.6358,-4.6427,-4.648,-4.6487,-4.6424,-4.6414,-4.6445,-4.6465,-4.6476,-4.6473,-4.6051,-4.6406,-4.6403,-4.64,-4.6399,-4.6397,-4.6167,-4.624,-4.6254,-4.6321,-4.6338,-4.6369,-4.6435,-4.6423,-4.6484,-4.6543,-4.6507,-4.6595,-4.6615,-4.6678,-4.6695,-4.6764,-4.671,-4.6754,-4.6766,-4.6778,-4.6795,-4.6463,-4.6774,-4.6773,-4.6772,-4.6771,-4.677,0,-4.6492,-4.6495,-4.6557,-4.6602,-4.6655,-4.6586,-4.6617,-4.6667,-4.6745,-4.6768,-4.6819,-4.6906,-4.6973,-4.6964,-4.7024,-4.7082,-4.7054,-4.71,-4.7096,-4.71,-4.6839,-4.6807,-4.7122,-4.7122,-4.7122,-4.7122,-4.7121,-4.7121,-4.6667,-4.6788,-4.6767,-4.6895,-4.6898,-4.6983,-4.7006,-4.7035,-4.7053,-4.7153,-4.7207,-4.7199,-4.721,-4.727,-4.7329,-4.7324,-4.7352,-4.7409,-4.7395,-4.7152,-4.7118,-4.7085,-4.7054,-4.7415,-4.7416,-4.7648,-4.7651,-4.7652]},{"header":{"parameterUnit":"m.s-1","parameterCategory":1,"la1":30.2991,"la2":30.254,"lo1":-89.0895,"lo2":-89.0444,"dy":0.0017,"dx":0.0017,"nx":28,"ny":28,"refTime":"2024-12-25T03:00:00:Z","depth":0,"parameterNumber":3,"parameterNumberName":"V-component_of_WINDS"},"data":[0,0,0,0,0,0,0,0,0,0,0,0,0,0,0,0,0,0,0,0,0,0,0,0,0,0,0,0,0,0,0,0,0,0,0,0,0,0,0,0,0,0,0,0,0,0,0,0,0,0,0,0,0,0,0,0,0,0,-0.1615,-0.1615,0,-0.1606,-0.1606,-0.1606,-0.1605,-0.1605,-0.1605,-0.1605,-0.1596,-0.1595,-0.1595,0,0,0,0,0,0,0,0,0,0,0,0,0,-0.1632,-0.1631,-0.1615,-0.1615,-0.1615,-0.1606,-0.1606,-0.1606,-0.1605,-0.1605,-0.1605,-0.1605,-0.1596,-0.1595,-0.1595,0,0,0,0,0,0,0,0,0,0,0,0,0,-0.1624,-0.1631,-0.1615,-0.1614,-0.1613,-0.1606,-0.1606,-0.1606,-0.1605,-0.1605,-0.1605,-0.1605,-0.1596,-0.1595,-0.1595,-0.1589,0,0,-0.1593,-0.1593,0,0,0,0,0,0,0,0,-0.1624,-0.1623,-0.1614,-0.1614,-0.1613,-0.1607,-0.1608,-0.16,-0.1605,-0.1608,-0.1605,-0.1605,-0.1599,-0.1599,-0.1596,-0.1588,-0.1588,-0.1593,-0.1593,-0.1593,-0.1593,0,0,0,0,0,0,0,-0.1625,-0.1624,-0.1612,-0.1614,-0.1614,-0.1613,-0.1612,-0.1607,-0.1603,-0.1608,-0.1608,-0.1607,-0.1599,-0.1597,-0.1596,-0.1588,-0.1593,-0.1593,-0.1593,-0.1592,-0.1573,-0.1573,0,0,0,0,0,0,-0.1626,-0.1624,-0.1612,-0.1611,-0.1619,-0.1613,-0.1612,-0.1609,-0.1603,-0.1602,-0.1607,-0.1607,-0.1598,-0.1597,-0.1596,-0.1588,-0.1593,-0.1592,-0.1592,-0.1573,-0.1573,-0.1573,0,0,0,0,0,0,-0.1626,-0.1625,-0.1612,-0.1618,-0.1616,-0.1612,-0.1609,-0.1609,-0.1606,-0.1602,-0.1601,-0.1605,-0.1598,-0.1597,-0.159,-0.1587,-0.1592,-0.1592,-0.1574,-0.1573,-0.1573,-0.1572,0,0,0,0,0,0,-0.1627,-0.1625,-0.1623,-0.1618,-0.1616,-0.1607,-0.1609,-0.1608,-0.1605,-0.1605,-0.16,-0.16,-0.1598,-0.1591,-0.159,-0.1587,-0.1591,-0.1574,-0.1573,-0.1573,-0.1572,-0.1571,-0.1571,0,0,0,0,0,-0.1627,-0.1623,-0.1623,-0.1621,-0.1613,-0.1607,-0.1606,-0.1604,-0.1605,-0.1603,-0.16,-0.16,-0.1588,-0.159,-0.1589,-0.1586,-0.1574,-0.1574,-0.1573,-0.1572,-0.1572,-0.1571,0,0,0,0,0,0,-0.1628,-0.1622,-0.1622,-0.1616,-0.1612,-0.1607,-0.1604,-0.1603,-0.1599,-0.1599,-0.1597,-0.1596,-0.1589,-0.1587,-0.159,-0.1579,-0.1581,-0.158,-0.1581,-0.158,-0.158,-0.158,-0.1591,0,0,0,0,0,-0.1628,-0.1623,-0.1618,-0.1614,-0.1612,-0.1608,-0.1606,-0.1604,-0.16,-0.1598,-0.1595,-0.1591,-0.1586,-0.1583,-0.1578,-0.1572,-0.157,-0.1568,-0.1568,-0.1567,-0.1567,-0.1562,-0.1561,-0.1571,-0.1571,-0.1571,0,0,-0.1627,-0.1623,-0.1621,-0.1614,-0.1611,-0.1606,-0.1607,-0.1602,-0.1598,-0.1598,-0.1591,-0.1589,-0.1584,-0.1577,-0.1574,-0.1575,-0.1564,-0.1567,-0.1567,-0.1566,-0.1562,-0.1561,-0.156,-0.1571,-0.1571,-0.1571,0,0,-0.1622,-0.1619,-0.1615,-0.1611,-0.1606,-0.1604,-0.1602,-0.1597,-0.1595,-0.1589,-0.1588,-0.1583,-0.1575,-0.1571,-0.1569,-0.1561,-0.1561,-0.156,-0.1557,-0.1553,-0.1552,-0.1551,-0.1548,-0.1547,-0.1559,-0.1559,-0.1559,0,-0.1622,-0.1615,-0.1613,-0.1607,-0.1604,-0.1603,-0.1598,-0.1594,-0.1588,-0.1586,-0.1587,-0.1576,-0.1572,-0.1564,-0.1562,-0.156,-0.1558,-0.1561,-0.1552,-0.1552,-0.1551,-0.1548,-0.1547,-0.1559,-0.1559,-0.1559,-0.1559,0,-0.1614,-0.1609,-0.1606,-0.16,-0.1596,-0.1591,-0.1587,-0.1584,-0.1582,-0.158,-0.1573,-0.1568,-0.1562,-0.156,-0.1559,-0.1552,-0.1552,-0.1553,-0.1555,-0.155,-0.1547,-0.1546,-0.1559,-0.1559,-0.1559,-0.1559,0,0,-0.1612,-0.1603,-0.1602,-0.1598,-0.1592,-0.1588,-0.1582,-0.1576,-0.1573,-0.1568,-0.1563,-0.1556,-0.1556,-0.1553,-0.1551,-0.1547,-0.1541,-0.1548,-0.1548,-0.1546,-0.1532,-0.1531,-0.153,-0.154,-0.154,-0.154,-0.1532,0,-0.1606,-0.1597,-0.1594,-0.1585,-0.158,-0.1578,-0.1573,-0.1569,-0.1565,-0.156,-0.1557,-0.1552,-0.1552,-0.155,-0.1546,-0.1542,-0.1538,-0.1543,-0.1535,-0.1535,-0.1537,-0.1529,-0.1529,-0.1521,-0.1531,-0.1531,-0.1531,0,-0.16,-0.1594,-0.1585,-0.1579,-0.1576,-0.1572,-0.1566,-0.1561,-0.1555,-0.1553,-0.1549,-0.1547,-0.1541,-0.1543,-0.1533,-0.1537,-0.1534,-0.1531,-0.1531,-0.153,-0.1533,-0.1528,-0.1519,-0.1518,-0.1529,-0.1529,-0.1529,0,-0.1598,-0.1588,-0.1582,-0.1579,-0.1571,-0.1568,-0.1565,-0.1559,-0.1555,-0.1549,-0.1547,-0.154,-0.1537,-0.1532,-0.1528,-0.153,-0.1519,-0.1521,-0.1517,-0.1517,-0.1515,-0.1515,-0.1505,-0.1513,-0.1513,-0.1513,-0.1513,0,-0.1593,-0.1587,-0.1581,-0.1577,-0.157,-0.1566,-0.156,-0.1556,-0.1551,-0.1546,-0.1544,-0.1539,-0.1534,-0.1528,-0.1525,-0.1518,-0.1516,-0.1514,-0.1513,-0.1514,-0.1515,-0.1512,-0.1513,-0.1512,-0.1512,-0.1513,-0.1513,0,-0.159,-0.1585,-0.1578,-0.1571,-0.1569,-0.1564,-0.1558,-0.1553,-0.155,-0.1543,-0.1541,-0.1536,-0.1529,-0.1524,-0.1516,-0.1513,-0.1505,-0.1504,-0.1507,-0.1507,-0.1502,-0.1503,-0.1491,-0.1489,-0.1498,-0.1498,-0.1498,0,-0.1587,-0.1583,-0.1575,-0.1571,-0.1567,-0.1561,-0.1557,-0.1553,-0.1548,-0.1541,-0.1537,-0.153,-0.1524,-0.1513,-0.1508,-0.1501,-0.15,-0.1496,-0.1499,-0.15,-0.15,-0.15,-0.1499,-0.1496,-0.1496,-0.1496,-0.1496,0,-0.1582,-0.1579,-0.1574,-0.1567,-0.1562,-0.1556,-0.1551,-0.1547,-0.1542,-0.1537,-0.153,-0.1525,-0.1516,-0.1508,-0.1501,-0.1497,-0.1495,-0.1495,-0.1493,-0.1494,-0.1496,-0.1495,-0.1506,-0.1495,-0.1495,-0.1495,-0.1495,-0.1495,-0.1579,-0.1574,-0.1568,-0.1561,-0.1556,-0.1551,-0.1546,-0.1541,-0.1535,-0.1527,-0.1525,-0.1517,-0.151,-0.1499,-0.1495,-0.1489,-0.1489,-0.1487,-0.1487,-0.1486,-0.1486,-0.1497,-0.1487,-0.1487,-0.1487,-0.1487,-0.1487,0,-0.1573,-0.1569,-0.1562,-0.1554,-0.1549,-0.1547,-0.1541,-0.1536,-0.1529,-0.1523,-0.1517,-0.1508,-0.15,-0.1494,-0.1486,-0.1482,-0.1481,-0.148,-0.1481,-0.148,-0.1486,-0.1488,-0.1481,-0.1481,-0.1481,-0.1481,-0.1481,-0.1481,-0.157,-0.1562,-0.1559,-0.1549,-0.1544,-0.1536,-0.1532,-0.1527,-0.1522,-0.1512,-0.1506,-0.1501,-0.1495,-0.1486,-0.1479,-0.1478,-0.1475,-0.1474,-0.1472,-0.1479,-0.1479,-0.148,-0.1482,-0.1473,-0.1473,-0.1466,-0.1466,-0.1466]}]]